Location: Sternwarte-Kraichtal
(49.1689°N, 8.6996°E)
Time: 19:08:12
(UTC+02:00)

Vanguard 2 Rocket - Pass Details

Date: 27 May 2022
Orbit: 553 x 3323 km, 32.9° (Epoch: 02 July)

Event Time Altitude Azimuth Distance (km) Brightness Sun altitude
Rises 10:52:51 0° 173° (S) 7,119 11.8 49.4°
Reaches altitude 10° 11:05:26 10° 141° (SE) 6,268 12.0 51.1°
Maximum altitude 11:08:00 10° 133° (SE) 6,205 12.0 51.5°
Drops below altitude 10° 11:10:32 10° 126° (SE) 6,189 12.0 51.8°
Sets 11:22:07 0° 94° (E) 6,713 11.8 53.3°
